St. Johnsbury, VT

11:43 AM EDT on June 23, 2017 (GMT -0400)
St. Johnsbury

Weather History for K1V4 - March, 2013

Change the Weather History Date:

Monday, March 18, 2013

  Actual Average Record
Temperature  
Mean Temperature 17 °F 31 °F  
Max Temperature 32 °F 42 °F 78 °F (2012)
Min Temperature 2 °F 20 °F -14 °F (1967)
Degree Days  
Heating Degree Days 48 34  
Month to date heating degree days 628 678  
Since 1 July heating degree days 6106 6402  
Cooling Degree Days 0 0  
Month to date cooling degree days 0 0  
Year to date cooling degree days 0 0  
Moisture  
Dew Point 2 °F    
Average Humidity 55    
Maximum Humidity 87    
Minimum Humidity 23    
Precipitation  
Precipitation 0.00 in 0.08 in 0.76 in (1989)
Month to date precipitation 1.02 1.39  
Year to date precipitation 4.40 6.07  
Sea Level Pressure  
Sea Level Pressure 30.36 in    
Wind  
Wind Speed - (North)    
Max Wind Speed -    
Max Gust Speed -    
T = Trace of Precipitation, MM = Missing Value Source: NWS Daily Summary

Daily Weather History Graph

Daily Weather History Graph

Search for Another Location

Airport or City:

Trip Planner

Search our weather history database for the weather conditions in past years. The results will help you decide how hot, cold, wet, or windy it might be!

Date:

Astronomy

Mar. 18, 2013 Rise Set
Actual Time 6:54 AM EDT 6:58 PM EDT
Civil Twilight 6:25 AM EDT 7:27 PM EDT
Nautical Twilight 5:51 AM EDT 8:01 PM EDT
Astronomical Twilight 5:17 AM EDT 8:36 PM EDT
Moon 10:38 AM EDT (3/18) 1:08 AM EDT (3/18)
Length of Visible Light 13h 01m
Length of Day
12h 03m
Waxing Crescent, 40% of the Moon is Illuminated
Mar 18
Waxing Crescent
Mar 19
First Quarter
Mar 27
Full
Apr 3
Last Quarter
Apr 10
New

Hourly Weather History & Observations

Time (EDT) Temp. Dew Point Humidity Pressure Visibility Wind Dir Wind Speed Gust Speed Precip Events Conditions
12:54 AM 9.0 °F 1.9 °F 73% 30.38 in - North - - N/A   Unknown
1:54 AM 8.1 °F 1.9 °F 76% 30.40 in - North - - N/A   Unknown
2:54 AM 6.1 °F 1.0 °F 80% 30.40 in - North - - N/A   Unknown
3:54 AM 5.0 °F -0.0 °F 80% 30.40 in - North - - N/A   Unknown
4:54 AM 3.9 °F -0.0 °F 84% 30.41 in - North - - N/A   Unknown
5:54 AM 3.0 °F -0.9 °F 84% 30.44 in - North - - N/A   Unknown
6:54 AM 1.9 °F -2.0 °F 83% 30.47 in - North - - N/A   Unknown
7:54 AM 3.9 °F -0.9 °F 80% 30.48 in - North - - N/A   Unknown
8:54 AM 7.0 °F -0.9 °F 70% 30.48 in - North - - N/A   Unknown
9:54 AM 12.9 °F 1.9 °F 62% 30.47 in - North - - N/A   Unknown
10:54 AM 19.9 °F -2.9 °F 37% 30.46 in - North - - N/A   Unknown
11:54 AM 23.0 °F -0.9 °F 35% 30.44 in - North - - N/A   Unknown
12:54 PM 26.1 °F -0.9 °F 31% 30.41 in - North - - N/A   Unknown
1:54 PM 30.0 °F 1.0 °F 29% 30.37 in - North - - N/A   Unknown
2:54 PM 30.0 °F -2.0 °F 25% 30.35 in - North - - N/A   Unknown
3:54 PM 32.0 °F -2.0 °F 23% 30.31 in - North - - N/A   Unknown
4:54 PM 32.0 °F -0.9 °F 24% 30.30 in - North - - N/A   Unknown
5:54 PM 32.0 °F -0.0 °F 26% 30.27 in - North - - N/A   Unknown
6:54 PM 30.0 °F 1.9 °F 30% 30.25 in - North - - N/A   Unknown
7:54 PM 28.9 °F 7.0 °F 40% 30.25 in - North - - N/A   Unknown
8:54 PM 28.0 °F 7.0 °F 41% 30.24 in - North - - N/A   Unknown
9:54 PM 27.0 °F 12.0 °F 53% 30.23 in - North - - N/A   Unknown
10:54 PM 27.0 °F 12.0 °F 53% 30.20 in - North - - N/A   Unknown
11:54 PM 27.0 °F 10.9 °F 51% 30.17 in - North - - N/A   Unknown